Tracking 21676 objects as of 29-Oct-2020
HD Live streaming from Space Station
objects crossing your sky now

FENGYUN 1C DEB

Track FENGYUN 1C DEB now!
10-day predictions


NORAD ID: 31302
Int'l Code: 1999-025BPL
Perigee: 831.8 km
Apogee: 880.3 km
Inclination: 99.4 °
Period: 101.9 minutes
Semi major axis: 7227 km
RCS: 0.011 m2 (small)
Launch date: May 10, 1999
Source: People's Republic of China (PRC)
Launch site: Taiyaun Space Center, China (TSC)

Note: This is SATELLITE DEBRIS
aabbcc
Your satellite tracking list
Your tracking list is empty




NASA's NSSDC Master Catalog

Two Line Element Set (TLE):
1 31302U 99025BPL 20302.25001821  .00000621  00000-0  35668-3 0  9990
2 31302  99.3621 207.8610 0033563 279.6688 232.2702 14.13059503698957
Source of the keplerian elements: AFSPC